{"data":{"norad_id":59724,"epoch":"2026-09-21T10:36:43.732512Z","epoch_age_seconds":89960,"freshness":"FRESH","line1":"1 59724U 24088S   26264.44217283  .00000381  00000+0  24025-4 0  9998","line2":"2 59724  53.1622 309.1793 0001234  95.1888 264.9254 15.31703958133673","mean_motion":15.31703958,"eccentricity":0.0001234,"inclination_deg":53.1622,"raan_deg":309.1793,"arg_perigee_deg":95.1888,"mean_anomaly_deg":264.9254,"bstar":2.4025e-5,"rev_number":13367,"period_min":94.012945026287,"perigee_km":469.88304669375,"apogee_km":471.57334662428,"semimajor_km":6848.865196659,"source":"CELESTRAK","updated_at":"2026-09-22T09:00:49.060741Z"}}